Time,TemperatureF,DewpointF,PressureIn,WindDirection,WindDirectionDegrees,WindSpeedMPH,WindSpeedGustMPH,Humidity,HourlyPrecipIn,Conditions,Clouds,dailyrainin,SoftwareType,DateUTC
2013-01-15 00:22:00,19.0,-9.0,-100.00,ENE,60,30.0,36.0,28,0.00,,,-99.99,,2013-01-15 08:22:00,
2013-01-15 00:32:00,19.0,-9.0,-100.00,ENE,60,30.0,36.0,28,0.00,,,-99.99,,2013-01-15 08:32:00,
2013-01-15 00:42:00,19.0,-9.0,-100.00,ENE,60,30.0,36.0,28,0.00,,,-99.99,,2013-01-15 08:42:00,
2013-01-15 00:52:00,19.0,-9.0,-100.00,ENE,60,30.0,36.0,28,0.00,,,-99.99,,2013-01-15 08:52:00,
2013-01-15 01:22:00,21.0,-7.0,-100.00,ENE,60,28.0,39.0,28,0.00,,,-99.99,,2013-01-15 09:22:00,
2013-01-15 01:33:00,21.0,-7.0,-100.00,ENE,60,28.0,39.0,28,0.00,,,-99.99,,2013-01-15 09:33:00,
2013-01-15 01:42:00,21.0,-7.0,-100.00,ENE,60,28.0,39.0,28,0.00,,,-99.99,,2013-01-15 09:42:00,
2013-01-15 01:52:00,21.0,-7.0,-100.00,ENE,60,28.0,39.0,28,0.00,,,-99.99,,2013-01-15 09:52:00,
2013-01-15 02:22:00,21.0,-6.0,-100.00,NE,50,30.0,34.0,29,0.00,,,-99.99,,2013-01-15 10:22:00,
2013-01-15 02:32:00,21.0,-6.0,-100.00,NE,50,30.0,34.0,29,0.00,,,-99.99,,2013-01-15 10:32:00,
2013-01-15 02:42:00,21.0,-6.0,-100.00,NE,50,30.0,34.0,29,0.00,,,-99.99,,2013-01-15 10:42:00,
2013-01-15 02:52:00,21.0,-6.0,-100.00,NE,50,30.0,34.0,29,0.00,,,-99.99,,2013-01-15 10:52:00,
2013-01-15 03:22:00,21.0,-4.0,-100.00,NE,40,27.0,37.0,33,0.00,,,-99.99,,2013-01-15 11:22:00,
2013-01-15 03:32:00,21.0,-4.0,-100.00,NE,40,27.0,37.0,33,0.00,,,-99.99,,2013-01-15 11:32:00,
2013-01-15 03:42:00,21.0,-4.0,-100.00,NE,40,27.0,37.0,33,0.00,,,-99.99,,2013-01-15 11:42:00,
2013-01-15 03:52:00,21.0,-4.0,-100.00,NE,40,27.0,37.0,33,0.00,,,-99.99,,2013-01-15 11:52:00,
2013-01-15 03:53:00,22.0,-1.0,-100.00,NE,40,32.0,37.0,36,0.00,,,-99.99,,2013-01-15 11:53:00,
2013-01-15 04:22:00,22.0,-1.0,-100.00,NE,40,32.0,37.0,36,0.00,,,-99.99,,2013-01-15 12:22:00,
2013-01-15 04:33:00,22.0,-1.0,-100.00,NE,40,32.0,37.0,36,0.00,,,-99.99,,2013-01-15 12:33:00,
2013-01-15 04:42:00,22.0,-1.0,-100.00,NE,40,32.0,37.0,36,0.00,,,-99.99,,2013-01-15 12:42:00,
2013-01-15 04:53:00,21.0,-1.0,-100.00,NE,50,27.0,37.0,37,0.00,,,-99.99,,2013-01-15 12:53:00,
2013-01-15 05:23:00,21.0,-1.0,-100.00,NE,50,27.0,37.0,37,0.00,,,-99.99,,2013-01-15 13:23:00,
2013-01-15 05:33:00,21.0,-1.0,-100.00,NE,50,27.0,37.0,37,0.00,,,-99.99,,2013-01-15 13:33:00,
2013-01-15 05:42:00,21.0,-1.0,-100.00,NE,50,27.0,37.0,37,0.00,,,-99.99,,2013-01-15 13:42:00,
2013-01-15 05:53:00,22.0,0.0,-100.00,NNE,30,29.0,45.0,38,0.00,,,-99.99,,2013-01-15 13:53:00,
2013-01-15 06:23:00,22.0,0.0,-100.00,NNE,30,29.0,45.0,38,0.00,,,-99.99,,2013-01-15 14:23:00,
2013-01-15 06:33:00,22.0,0.0,-100.00,NNE,30,29.0,45.0,38,0.00,,,-99.99,,2013-01-15 14:33:00,
2013-01-15 06:43:00,22.0,0.0,-100.00,NNE,30,29.0,45.0,38,0.00,,,-99.99,,2013-01-15 14:43:00,
2013-01-15 07:23:00,22.0,1.0,-100.00,NE,40,26.0,43.0,40,0.00,,,-99.99,,2013-01-15 15:23:00,
2013-01-15 07:33:00,22.0,1.0,-100.00,NE,40,26.0,43.0,40,0.00,,,-99.99,,2013-01-15 15:33:00,
2013-01-15 07:43:00,22.0,1.0,-100.00,NE,40,26.0,43.0,40,0.00,,,-99.99,,2013-01-15 15:43:00,
2013-01-15 07:52:00,22.0,1.0,-100.00,NE,40,26.0,43.0,40,0.00,,,-99.99,,2013-01-15 15:52:00,
2013-01-15 07:53:00,24.0,4.0,-100.00,NE,40,35.0,37.0,42,0.00,,,-99.99,,2013-01-15 15:53:00,
2013-01-15 08:22:00,24.0,4.0,-100.00,NE,40,35.0,37.0,42,0.00,,,-99.99,,2013-01-15 16:22:00,
2013-01-15 08:33:00,24.0,4.0,-100.00,NE,40,35.0,37.0,42,0.00,,,-99.99,,2013-01-15 16:33:00,
2013-01-15 08:42:00,24.0,4.0,-100.00,NE,40,35.0,37.0,42,0.00,,,-99.99,,2013-01-15 16:42:00,
2013-01-15 08:53:00,24.0,5.0,-100.00,NE,50,33.0,43.0,44,0.00,,,-99.99,,2013-01-15 16:53:00,
2013-01-15 09:22:00,24.0,5.0,-100.00,NE,50,33.0,43.0,44,0.00,,,-99.99,,2013-01-15 17:22:00,
2013-01-15 09:33:00,24.0,5.0,-100.00,NE,50,33.0,43.0,44,0.00,,,-99.99,,2013-01-15 17:33:00,
2013-01-15 09:42:00,24.0,5.0,-100.00,NE,50,33.0,43.0,44,0.00,,,-99.99,,2013-01-15 17:42:00,
2013-01-15 09:53:00,25.0,6.0,-100.00,NE,50,28.0,43.0,44,0.00,,,-99.99,,2013-01-15 17:53:00,
2013-01-15 10:23:00,25.0,6.0,-100.00,NE,50,28.0,43.0,44,0.00,,,-99.99,,2013-01-15 18:23:00,
2013-01-15 10:33:00,25.0,6.0,-100.00,NE,50,28.0,43.0,44,0.00,,,-99.99,,2013-01-15 18:33:00,
2013-01-15 10:42:00,25.0,6.0,-100.00,NE,50,28.0,43.0,44,0.00,,,-99.99,,2013-01-15 18:42:00,
2013-01-15 11:22:00,24.0,5.0,-100.00,NE,40,30.0,37.0,44,0.00,,,-99.99,,2013-01-15 19:22:00,
2013-01-15 11:33:00,24.0,5.0,-100.00,NE,40,30.0,37.0,44,0.00,,,-99.99,,2013-01-15 19:33:00,
2013-01-15 11:42:00,24.0,5.0,-100.00,NE,40,30.0,37.0,44,0.00,,,-99.99,,2013-01-15 19:42:00,
2013-01-15 11:52:00,24.0,5.0,-100.00,NE,40,30.0,37.0,44,0.00,,,-99.99,,2013-01-15 19:52:00,
2013-01-15 12:23:00,26.0,6.0,-100.00,NE,40,30.0,36.0,42,0.00,,,-99.99,,2013-01-15 20:23:00,
2013-01-15 12:33:00,26.0,6.0,-100.00,NE,40,30.0,36.0,42,0.00,,,-99.99,,2013-01-15 20:33:00,
2013-01-15 12:43:00,26.0,6.0,-100.00,NE,40,30.0,36.0,42,0.00,,,-99.99,,2013-01-15 20:43:00,
2013-01-15 12:52:00,26.0,6.0,-100.00,NE,40,30.0,36.0,42,0.00,,,-99.99,,2013-01-15 20:52:00,
2013-01-15 13:22:00,26.0,7.0,-100.00,NE,40,30.0,39.0,44,0.00,,,-99.99,,2013-01-15 21:22:00,
2013-01-15 13:33:00,26.0,7.0,-100.00,NE,40,30.0,39.0,44,0.00,,,-99.99,,2013-01-15 21:33:00,
2013-01-15 13:43:00,26.0,7.0,-100.00,NE,40,30.0,39.0,44,0.00,,,-99.99,,2013-01-15 21:43:00,
2013-01-15 13:52:00,26.0,7.0,-100.00,NE,40,30.0,39.0,44,0.00,,,-99.99,,2013-01-15 21:52:00,
2013-01-15 14:43:00,28.0,9.0,-100.00,NNE,30,8.0,43.0,44,0.00,,,-99.99,,2013-01-15 22:43:00,
2013-01-15 14:53:00,28.0,9.0,-100.00,NNE,30,8.0,43.0,44,0.00,,,-99.99,,2013-01-15 22:53:00,
2013-01-15 15:02:00,28.0,9.0,-100.00,NNE,30,8.0,43.0,44,0.00,,,-99.99,,2013-01-15 23:02:00,
2013-01-15 15:43:00,28.0,8.0,-100.00,NE,40,26.0,28.0,43,0.00,,,-99.99,,2013-01-15 23:43:00,
2013-01-15 15:53:00,28.0,8.0,-100.00,NE,40,26.0,28.0,43,0.00,,,-99.99,,2013-01-15 23:53:00,
2013-01-15 16:02:00,29.0,9.0,-100.00,NE,40,26.0,31.0,43,0.00,,,-99.99,,2013-01-16 00:02:00,
2013-01-15 16:43:00,29.0,9.0,-100.00,NE,40,26.0,31.0,43,0.00,,,-99.99,,2013-01-16 00:43:00,
2013-01-15 16:53:00,29.0,9.0,-100.00,NE,40,26.0,31.0,43,0.00,,,-99.99,,2013-01-16 00:53:00,
2013-01-15 17:02:00,29.0,10.0,-100.00,NE,40,34.0,39.0,44,0.00,,,-99.99,,2013-01-16 01:02:00,
2013-01-15 17:23:00,29.0,10.0,-100.00,NE,40,34.0,39.0,44,0.00,,,-99.99,,2013-01-16 01:23:00,
2013-01-15 17:33:00,29.0,10.0,-100.00,NE,40,34.0,39.0,44,0.00,,,-99.99,,2013-01-16 01:33:00,
2013-01-15 17:43:00,29.0,10.0,-100.00,NE,40,34.0,39.0,44,0.00,,,-99.99,,2013-01-16 01:43:00,
2013-01-15 17:53:00,29.0,10.0,-100.00,NE,40,34.0,39.0,44,0.00,,,-99.99,,2013-01-16 01:53:00,
2013-01-15 18:02:00,29.0,10.0,-100.00,NE,50,39.0,42.0,45,0.00,,,-99.99,,2013-01-16 02:02:00,
2013-01-15 18:23:00,29.0,10.0,-100.00,NE,50,39.0,42.0,45,0.00,,,-99.99,,2013-01-16 02:23:00,
2013-01-15 18:33:00,29.0,10.0,-100.00,NE,50,39.0,42.0,45,0.00,,,-99.99,,2013-01-16 02:33:00,
2013-01-15 18:43:00,29.0,10.0,-100.00,NE,50,39.0,42.0,45,0.00,,,-99.99,,2013-01-16 02:43:00,
2013-01-15 18:53:00,29.0,10.0,-100.00,NE,50,39.0,42.0,45,0.00,,,-99.99,,2013-01-16 02:53:00,
2013-01-15 19:02:00,31.0,11.0,-100.00,NE,50,33.0,42.0,42,0.00,,,-99.99,,2013-01-16 03:02:00,
2013-01-15 19:22:00,31.0,11.0,-100.00,NE,50,33.0,42.0,42,0.00,,,-99.99,,2013-01-16 03:22:00,
2013-01-15 19:33:00,31.0,11.0,-100.00,NE,50,33.0,42.0,42,0.00,,,-99.99,,2013-01-16 03:33:00,
2013-01-15 19:43:00,31.0,11.0,-100.00,NE,50,33.0,42.0,42,0.00,,,-99.99,,2013-01-16 03:43:00,
2013-01-15 19:53:00,31.0,11.0,-100.00,NE,50,33.0,42.0,42,0.00,,,-99.99,,2013-01-16 03:53:00,
2013-01-15 20:02:00,32.0,11.0,-100.00,NE,50,32.0,44.0,41,0.00,,,-99.99,,2013-01-16 04:02:00,
2013-01-15 20:22:00,32.0,11.0,-100.00,NE,50,32.0,44.0,41,0.00,,,-99.99,,2013-01-16 04:22:00,
2013-01-15 20:33:00,32.0,11.0,-100.00,NE,50,32.0,44.0,41,0.00,,,-99.99,,2013-01-16 04:33:00,
2013-01-15 20:42:00,32.0,11.0,-100.00,NE,50,32.0,44.0,41,0.00,,,-99.99,,2013-01-16 04:42:00,
2013-01-15 20:52:00,32.0,11.0,-100.00,NE,50,32.0,44.0,41,0.00,,,-99.99,,2013-01-16 04:52:00,
2013-01-15 21:02:00,30.0,11.0,-100.00,ENE,60,31.0,44.0,44,0.00,,,-99.99,,2013-01-16 05:02:00,
2013-01-15 21:23:00,30.0,11.0,-100.00,ENE,60,31.0,44.0,44,0.00,,,-99.99,,2013-01-16 05:23:00,
2013-01-15 21:33:00,30.0,11.0,-100.00,ENE,60,31.0,44.0,44,0.00,,,-99.99,,2013-01-16 05:33:00,
2013-01-15 21:42:00,30.0,11.0,-100.00,ENE,60,31.0,44.0,44,0.00,,,-99.99,,2013-01-16 05:42:00,
2013-01-15 21:53:00,30.0,11.0,-100.00,ENE,60,31.0,44.0,44,0.00,,,-99.99,,2013-01-16 05:53:00,
2013-01-15 22:02:00,29.0,10.0,-100.00,ENE,60,24.0,35.0,44,0.00,,,-99.99,,2013-01-16 06:02:00,
2013-01-15 22:22:00,29.0,10.0,-100.00,ENE,60,24.0,35.0,44,0.00,,,-99.99,,2013-01-16 06:22:00,
2013-01-15 22:33:00,29.0,10.0,-100.00,ENE,60,24.0,35.0,44,0.00,,,-99.99,,2013-01-16 06:33:00,
2013-01-15 22:43:00,29.0,10.0,-100.00,ENE,60,24.0,35.0,44,0.00,,,-99.99,,2013-01-16 06:43:00,
2013-01-15 22:53:00,29.0,10.0,-100.00,ENE,60,24.0,35.0,44,0.00,,,-99.99,,2013-01-16 06:53:00,
2013-01-15 23:02:00,30.0,11.0,-100.00,ENE,60,32.0,38.0,44,0.00,,,-99.99,,2013-01-16 07:02:00,
2013-01-15 23:22:00,30.0,11.0,-100.00,ENE,60,32.0,38.0,44,0.00,,,-99.99,,2013-01-16 07:22:00,
2013-01-15 23:33:00,30.0,11.0,-100.00,ENE,60,32.0,38.0,44,0.00,,,-99.99,,2013-01-16 07:33:00,
2013-01-15 23:42:00,30.0,11.0,-100.00,ENE,60,32.0,38.0,44,0.00,,,-99.99,,2013-01-16 07:42:00,
2013-01-15 23:52:00,30.0,11.0,-100.00,ENE,60,32.0,38.0,44,0.00,,,-99.99,,2013-01-16 07:52:00,